Lid_Strength_Index
-1 -1 -1 2 9 8 11 10 6 7 6 4 4 5 6 5 6 9 1 -0 -0 -0 -1 -1 -1 -1 -1 -1 -1 -2 -2 -1 -1 -1 -1 -1 -1 -1 -1 -1 -1 -1 -1 -1 -1 -1 -1 -1 -1
-1 -0 1 4 11 14 11 7 8 6 5 4 4 4 5 7 3 3 2 -0 -0 -1 -1 -1 -1 -2 -1 -1 -2 -1 -1 -1 -1 -1 -1 -1 -1 -1 -1 -1 -1 -1 -1 -1 -1 -1 -1 -1 -1
-0 0 4 6 8 12 11 7 6 5 4 4 5 3 5 6 3 2 0 -0 -1 -0 -1 -1 -1 -2 -2 -2 -2 -1 -1 -1 -1 -1 -1 -1 -1 -1 -1 -1 -1 -1 -1 -1 -1 -1 -1 -1 -1
1 2 4 8 10 8 7 6 5 5 4 3 4 6 3 2 2 1 -0 -0 -0 -0 -1 -1 -1 -2 -1 -1 -1 -1 -1 -1 -1 -1 -1 -1 -1 -1 -1 -1 -1 -1 -1 -1 -1 -1 -1 -1 -1
1 3 7 8 8 6 5 5 6 6 5 5 4 5 5 2 1 0 0 -0 0 -0 -1 -1 -1 -1 -1 -1 -1 -1 -1 -1 -1 -1 -1 -1 -1 -1 -1 -1 -1 -1 -1 -1 -1 -1 -1 -1 -1
4 4 7 9 8 7 6 5 6 6 5 5 5 5 4 1 1 1 0 -0 -0 -0 -1 -1 -1 -1 -1 -1 -1 -1 -1 -1 -1 -1 -1 -1 -1 -1 -1 -1 -1 -1 -1 -1 -1 -1 -1 -1 -1
5 6 8 8 7 7 7 5 6 6 6 6 4 5 3 3 1 0 0 -0 -0 -1 -1 -1 -1 -1 -1 -1 -1 -1 -1 -1 -1 -1 -1 -1 -1 -1 -1 -1 -1 -1 -1 -1 -1 -1 -1 -1 -1
4 5 8 7 8 8 6 6 5 6 6 4 4 6 5 3 1 0 0 0 -0 -0 -1 -1 -1 -1 -1 -1 -2 -1 -1 -1 -1 -1 -1 -1 -1 -1 -1 -1 -1 -1 -1 -1 -1 -1 -1 -1 -1
5 7 8 8 8 7 6 7 5 5 5 5 5 4 3 1 1 1 1 1 1 0 -0 -1 -0 -1 -1 -1 -1 -1 -1 -2 -1 -1 -1 -1 -1 -1 -1 -2 -1 -1 -1 -1 -1 -1 -1 -0 -1
6 7 8 7 6 6 6 6 6 6 6 6 5 4 2 1 1 2 2 2 2 1 1 2 1 1 -1 -0 -1 -1 -1 -1 -1 -1 -1 -1 -1 -1 -1 -2 -1 -1 -1 -1 -1 -1 -1 -1 -1
7 8 7 7 6 6 6 6 6 6 6 7 7 5 3 2 2 2 2 2 3 3 3 3 2 1 0 -1 -1 -1 -1 -1 -1 -1 -1 -1 -1 -1 -1 -1 -1 -1 -1 -1 -1 -1 -1 -1 -1
8 8 7 7 6 6 6 5 7 5 7 6 6 5 4 4 4 4 4 3 3 2 3 3 2 1 -1 -1 -1 -1 -0 -1 -1 -1 -1 -0 -0 -1 -1 -1 -1 -1 -1 -1 -0 0 -1 -1 -0
8 8 7 6 6 5 5 6 7 7 6 6 5 5 5 5 5 5 4 4 4 4 3 3 2 0 -1 -0 -1 -1 -0 -0 -0 -0 -1 -1 -0 -0 -0 -0 -1 -1 -1 -1 -1 0 1 1 1
7 7 7 6 6 6 7 7 7 7 6 6 6 6 6 6 6 6 6 5 5 5 5 5 4 3 2 1 -0 -1 -1 -1 -1 0 0 0 1 0 -0 -0 -0 -1 -1 -0 0 1 2 2 2
6 8 7 7 6 7 6 8 7 7 6 7 7 7 7 7 6 7 6 6 5 5 5 5 5 5 5 4 3 3 2 1 0 -0 -0 1 0 1 1 1 0 -0 -1 -1 0 2 2 3 3
7 7 9 7 7 7 7 9 7 7 7 7 7 7 7 7 7 7 7 6 6 5 6 5 5 5 5 5 4 4 4 4 3 3 2 2 1 1 1 -0 -0 -0 0 -0 0 1 2 3 3
7 10 9 9 7 7 7 8 7 7 7 7 7 7 8 8 8 7 7 7 6 6 6 5 5 5 5 5 5 5 4 4 4 4 4 4 3 3 3 1 -0 -1 -0 0 1 0 1 3 3
9 9 9 9 8 7 8 8 7 7 8 8 7 7 8 8 8 7 7 7 7 6 6 6 5 5 5 5 5 5 5 5 4 4 4 4 4 3 3 2 2 1 0 0 0 1 1 1 3
8 9 9 8 7 9 9 8 8 8 8 8 8 8 8 8 7 7 7 7 7 7 6 6 6 6 6 6 6 6 6 6 5 5 4 4 4 4 3 3 3 2 2 1 0 0 1 2 1
8 9 8 8 8 9 8 8 7 8 8 8 8 8 8 8 8 7 7 7 7 7 6 6 6 6 6 6 6 6 6 6 5 4 4 4 5 4 4 4 3 3 2 2 1 0 1 1 2
8 9 9 9 8 7 9 9 8 8 8 8 8 7 8 8 8 7 7 7 6 6 6 6 6 6 6 6 6 6 5 5 5 5 4 4 4 4 4 4 3 3 2 2 2 1 1 2 1
10 8 9 9 10 11 9 13 9 9 10 9 9 8 8 8 8 7 7 7 7 6 6 6 6 6 6 6 6 6 6 7 6 5 4 4 4 4 4 4 3 3 3 3 3 2 2 1 2
9 8 9 9 10 10 10 12 9 9 11 10 9 8 8 8 8 8 8 7 7 7 6 6 6 6 6 6 6 6 7 6 5 5 5 5 4 3 3 3 3 3 3 3 3 2 2 2 2
8 9 9 10 10 13 10 11 10 10 9 9 8 8 8 8 8 8 7 7 7 6 6 5 6 6 6 6 6 6 6 7 7 6 6 4 3 3 3 3 2 2 2 2 2 2 2 2 2
9 10 13 13 14 13 11 12 10 8 9 8 8 8 8 8 8 8 8 8 7 7 6 6 6 7 7 7 7 7 6 6 6 6 5 5 4 3 3 2 2 2 1 1 2 2 2 2 2
10 10 12 15 14 13 12 13 10 9 8 8 8 8 8 8 8 8 8 7 7 7 6 6 7 7 7 7 7 6 6 5 5 5 5 4 4 3 2 3 2 2 2 2 1 2 2 1 1
10 12 10 12 11 14 12 10 10 10 10 9 9 8 9 8 8 8 7 7 7 6 7 7 7 7 7 7 6 6 6 5 5 4 4 4 3 3 3 3 2 2 2 2 2 2 1 1 1
10 10 12 12 15 15 12 11 12 11 10 10 10 9 9 8 8 7 7 7 7 7 7 7 7 7 7 7 6 6 6 5 4 4 4 4 3 3 3 2 2 2 2 2 2 2 1 2 2
12 12 12 12 12 14 15 12 9 9 9 9 9 8 8 8 8 7 7 7 7 7 7 7 7 7 7 6 6 6 5 5 5 5 4 4 3 3 3 3 3 2 2 3 2 2 2 2 2
11 11 11 13 13 12 13 13 8 9 9 9 9 8 7 7 7 7 7 7 7 7 7 7 7 7 6 6 6 6 5 5 5 5 5 5 4 4 3 3 3 3 3 3 3 3 3 3 3